Wind_Speed
5 7 7 7 6 6 5 4 3 2 2 3 4 4 5 6 6 7 7 7 8 8 8 8 8 8 8 7 6 6 6 6 6 5 4 4 4 4 4 4 6 7 9
6 6 6 6 5 4 3 2 1 2 2 3 4 5 6 7 7 8 8 8 9 9 9 9 9 9 8 7 6 6 6 6 6 5 4 3 3 3 3 4 6 7 8
5 5 5 5 4 3 2 1 2 3 3 4 5 6 7 7 8 9 9 9 10 10 10 10 10 10 9 7 7 6 5 5 5 4 3 2 1 2 3 4 6 8 8
4 4 4 3 3 2 1 2 2 3 4 5 6 7 8 8 9 10 10 10 11 11 11 11 11 11 10 9 7 7 6 5 5 4 3 2 0 0 1 3 6 8 8
3 3 2 2 2 2 2 2 3 4 5 6 7 8 8 9 10 10 11 11 11 12 12 12 12 12 11 10 9 8 7 6 6 5 4 3 2 2 2 3 5 7 8
3 2 1 1 2 3 4 4 5 6 6 7 8 9 10 10 11 12 12 13 13 13 13 13 13 13 12 11 10 9 8 8 8 7 7 6 4 4 4 4 5 6 7
1 1 2 3 4 5 6 7 7 8 9 10 10 11 11 12 13 14 14 14 15 15 15 14 14 14 14 13 12 11 10 10 9 8 8 8 7 6 6 6 6 7 8
1 3 4 5 7 8 9 10 10 11 12 12 13 14 14 15 16 16 17 17 17 17 17 17 16 16 16 15 14 13 11 10 10 10 10 10 10 9 8 8 8 8 8
3 5 6 7 9 10 11 12 13 14 14 15 16 17 17 18 18 18 19 19 19 19 19 19 19 18 18 17 16 14 12 11 11 11 11 11 11 11 11 11 11 10 10
5 7 8 9 10 12 13 14 15 16 16 18 18 19 19 18 19 19 20 19 19 19 19 19 19 19 19 19 18 16 14 12 12 12 12 12 13 13 13 14 14 13 12
6 8 9 10 11 13 14 16 16 17 17 18 19 19 19 19 18 17 17 17 17 17 17 18 18 18 18 19 19 18 16 13 12 13 13 13 13 14 15 16 16 15 14
8 10 11 12 13 14 15 15 15 16 17 18 18 18 17 16 15 15 15 15 15 15 15 15 16 16 17 18 18 18 17 15 14 13 14 15 14 15 16 17 18 18 17
10 11 12 13 14 14 15 14 14 15 16 17 16 15 15 14 14 15 15 15 15 15 15 15 15 16 17 17 17 17 17 15 15 14 15 15 15 16 17 18 19 20 19
11 12 12 12 13 14 13 13 13 14 14 14 13 13 13 13 13 14 14 15 15 16 15 15 15 16 16 16 17 17 17 16 15 15 15 17 17 16 17 18 19 21 22
10 11 11 12 12 11 11 11 11 11 11 11 11 11 11 12 12 12 13 14 15 15 15 15 15 15 15 16 16 17 17 17 16 16 15 16 17 17 18 18 19 20 22
10 10 10 10 10 8 8 9 8 8 8 9 8 9 9 10 11 12 12 13 13 14 14 14 15 15 16 16 16 17 17 17 17 17 16 16 17 18 19 19 19 21 22
9 8 8 8 7 6 7 7 6 6 7 7 8 8 9 9 9 10 11 12 12 13 13 14 14 15 16 16 16 17 17 17 17 18 18 18 18 18 18 20 21 21 22
7 7 6 6 6 5 5 5 4 5 6 7 7 8 8 9 9 9 9 10 10 11 12 12 13 14 15 16 16 17 17 18 18 18 18 18 19 19 20 20 20 22 23
5 5 4 4 3 3 3 4 4 4 5 6 7 7 8 8 9 9 9 9 10 10 11 12 12 13 14 15 16 16 17 18 18 19 19 19 19 20 21 22 21 22 23
4 3 2 2 1 1 2 3 3 3 4 5 6 7 8 8 8 9 9 9 9 9 9 10 11 12 12 13 14 16 17 17 18 19 19 19 19 20 22 23 23 23 23
4 3 2 2 1 1 2 2 2 3 4 5 6 7 8 9 9 10 9 9 9 9 10 10 11 11 12 12 13 15 16 16 17 18 19 20 21 21 22 23 24 25 25
4 3 2 2 1 0 1 2 2 3 4 6 7 8 9 10 11 11 11 10 10 10 10 11 11 11 11 12 13 14 15 16 17 18 19 20 21 22 23 24 25 26 27
5 4 3 2 1 0 1 2 3 4 5 6 8 9 10 11 11 11 12 12 12 12 12 12 13 13 13 13 14 14 16 16 17 18 19 20 21 22 23 24 25 27 28
4 3 2 1 1 1 2 3 4 5 6 7 8 10 11 12 13 13 13 13 14 14 14 15 15 16 16 16 15 16 16 17 17 18 19 20 21 22 23 24 25 27 28
3 3 2 1 1 2 3 4 4 6 7 8 9 11 12 13 14 14 15 16 16 16 16 16 17 18 18 19 18 18 18 19 19 20 20 21 22 22 23 24 26 27 28
2 2 2 2 2 3 3 4 5 7 8 9 11 12 12 13 14 15 16 17 17 17 18 18 18 19 20 20 21 21 22 22 22 22 23 24 24 24 25 26 27 28 29
Wind_Direction
111 112 115 112 105 97 88 81 71 39 357 340 334 326 322 321 321 321 322 325 327 327 328 330 334 339 344 351 358 2 6 12 19 32 50 63 70 73 86 102 118 126 128
124 116 118 115 109 99 87 68 30 349 328 321 319 316 315 313 313 313 313 315 317 317 317 319 323 326 330 337 344 349 355 359 6 18 35 52 65 73 97 117 130 132 132
129 120 117 111 105 96 80 20 328 319 314 313 312 312 310 308 306 306 307 309 311 310 311 311 314 316 319 322 327 331 335 340 346 357 10 25 53 79 95 117 139 136 137
129 123 116 105 92 76 46 360 333 320 319 316 311 308 305 304 304 302 301 302 304 305 304 305 307 308 311 311 310 311 314 317 321 329 333 339 334 175 121 120 140 142 143
126 121 113 95 63 27 356 334 325 322 317 314 311 309 307 305 304 304 301 300 299 301 300 300 300 302 305 305 303 301 299 298 297 301 298 288 271 237 191 159 152 148 152
130 119 90 43 2 342 331 326 320 316 311 306 305 305 304 304 302 300 299 298 297 298 297 296 295 296 298 300 299 295 291 288 283 281 281 269 254 234 217 198 181 169 165
136 27 352 338 331 326 319 316 315 313 312 308 304 301 300 298 296 294 291 292 291 291 291 291 291 291 292 294 295 293 288 284 276 269 270 259 247 236 227 216 203 188 180
275 313 319 322 319 316 313 312 311 309 306 303 300 298 296 292 289 289 289 287 284 284 284 284 285 286 288 289 290 290 287 283 274 266 262 253 242 236 228 221 214 204 194
279 295 303 306 305 306 306 304 302 300 298 296 296 294 293 290 286 285 287 285 280 279 279 278 279 281 284 285 287 288 286 281 275 269 259 251 243 242 231 224 221 214 206
268 286 293 295 296 297 297 294 293 291 292 293 292 290 290 289 286 285 284 281 277 276 276 275 274 275 279 282 284 285 284 281 273 268 259 251 247 243 235 226 223 220 213
264 280 286 289 289 288 290 290 287 285 287 289 289 287 287 287 284 284 284 281 278 275 275 275 272 273 274 278 282 283 282 281 272 266 260 255 250 242 236 231 225 222 218
260 272 279 283 284 284 286 287 285 284 286 288 289 288 287 284 282 281 283 282 280 277 275 275 274 272 272 276 278 280 279 277 271 264 260 257 253 247 240 234 227 223 221
255 265 273 279 282 283 284 286 284 284 287 288 287 287 286 281 281 280 282 281 280 278 276 275 274 273 272 273 277 278 279 278 270 263 258 257 255 249 241 235 229 224 221
250 261 268 275 278 278 280 283 284 284 287 288 286 286 283 280 280 282 283 282 280 279 277 275 274 272 272 270 272 275 276 277 270 263 262 257 254 248 242 236 229 226 224
256 264 269 276 277 277 278 283 283 285 287 288 290 290 287 287 288 287 285 282 281 279 276 273 273 272 271 271 272 275 276 274 269 266 264 258 252 249 243 237 231 228 228
262 270 276 280 283 280 283 289 293 293 293 294 301 302 300 301 299 294 290 287 284 280 276 274 273 271 271 271 269 271 272 271 268 266 261 258 253 249 244 238 235 232 230
264 273 280 285 290 288 293 299 304 307 309 314 317 315 315 316 312 305 299 294 290 285 281 277 273 270 269 269 267 267 269 270 268 265 261 258 255 250 246 242 240 236 234
255 266 273 282 292 294 304 314 321 324 323 326 328 326 325 325 321 317 313 305 298 292 287 284 278 274 271 269 269 268 269 269 269 265 261 257 255 252 249 245 242 239 237
238 252 262 271 287 299 317 328 331 336 338 338 340 340 335 332 328 326 323 317 311 305 298 292 286 280 275 272 271 270 269 268 268 266 262 259 256 253 251 247 244 242 239
207 217 226 238 268 304 335 338 344 355 357 352 347 343 339 339 337 335 332 329 323 317 311 304 297 291 286 280 276 274 272 271 269 266 264 261 257 254 251 248 246 244 242
164 170 188 204 223 310 336 337 352 356 354 348 346 346 348 348 345 342 336 330 326 323 319 312 306 300 295 289 284 281 277 273 270 268 265 262 259 255 252 250 248 246 244
150 161 162 168 192 286 317 329 345 351 348 348 350 348 347 344 340 339 335 331 326 323 321 317 312 307 301 295 289 285 282 277 273 270 267 264 262 259 255 251 249 247 246
148 149 154 165 174 261 321 337 345 347 350 350 346 343 340 336 335 334 330 327 324 319 315 312 309 306 304 300 295 290 285 281 278 274 271 268 265 262 259 256 251 249 247
148 155 167 175 207 293 316 334 342 345 344 343 340 339 338 335 332 330 328 325 321 316 311 307 305 303 302 300 297 293 288 284 282 279 274 271 268 264 261 258 254 252 250
153 163 186 221 270 298 313 326 338 344 345 344 343 341 339 337 335 334 333 330 326 322 318 313 308 304 301 298 296 292 289 286 283 281 277 273 269 267 263 260 256 253 250
170 205 237 260 291 304 314 329 339 344 345 344 343 341 339 339 338 337 335 332 329 326 322 318 314 310 305 300 296 292 289 286 284 282 279 276 272 268 265 262 259 255 251
Height
5915 5914 5915 5915 5916 5916 5916 5916 5916 5916 5916 5916 5915 5915 5915 5914 5914 5913 5913 5912 5911 5911 5910 5909 5909 5908 5908 5908 5907 5907 5906 5905 5905 5904 5903 5903 5902 5902 5901 5901 5901 5901 5901
5915 5915 5915 5915 5915 5916 5916 5916 5916 5916 5915 5915 5915 5914 5914 5913 5913 5913 5912 5911 5911 5910 5909 5908 5908 5908 5907 5907 5907 5906 5906 5905 5905 5904 5904 5904 5903 5902 5902 5902 5902 5902 5903
5914 5915 5915 5915 5915 5915 5915 5915 5915 5915 5915 5914 5914 5913 5913 5912 5912 5912 5911 5911 5910 5909 5908 5907 5907 5907 5906 5906 5906 5905 5905 5905 5905 5904 5904 5904 5903 5903 5902 5902 5903 5903 5904
5914 5914 5914 5914 5914 5915 5915 5915 5914 5914 5914 5913 5913 5912 5912 5911 5911 5910 5910 5909 5909 5908 5907 5906 5906 5905 5905 5905 5905 5904 5904 5904 5904 5904 5904 5904 5904 5904 5903 5903 5904 5904 5905
5913 5913 5913 5913 5913 5913 5913 5913 5913 5913 5913 5912 5912 5911 5911 5910 5909 5909 5908 5908 5907 5906 5906 5905 5904 5904 5904 5903 5903 5903 5903 5903 5903 5903 5903 5903 5904 5904 5904 5904 5905 5905 5906
5912 5912 5912 5912 5912 5912 5912 5912 5912 5912 5911 5911 5910 5910 5909 5908 5908 5907 5906 5906 5905 5904 5904 5903 5902 5902 5902 5902 5902 5902 5902 5902 5902 5902 5902 5902 5903 5903 5904 5905 5905 5906 5906
5910 5911 5911 5911 5911 5911 5911 5910 5910 5910 5909 5909 5908 5908 5907 5907 5906 5905 5904 5904 5903 5902 5902 5901 5900 5900 5900 5900 5900 5900 5900 5900 5900 5901 5901 5901 5902 5902 5903 5904 5905 5906 5906
5909 5909 5909 5909 5909 5909 5909 5908 5908 5908 5907 5906 5906 5905 5904 5904 5903 5902 5901 5901 5900 5900 5899 5899 5898 5897 5897 5897 5897 5898 5898 5898 5898 5898 5899 5899 5900 5901 5902 5903 5904 5905 5906
5907 5908 5907 5907 5907 5907 5906 5906 5905 5905 5904 5903 5902 5902 5901 5900 5899 5899 5898 5897 5897 5896 5896 5895 5895 5894 5894 5894 5894 5895 5896 5896 5895 5895 5896 5896 5897 5898 5900 5901 5903 5904 5905
5905 5906 5906 5905 5905 5905 5904 5903 5903 5902 5901 5900 5899 5898 5897 5896 5896 5895 5894 5893 5892 5892 5892 5892 5891 5891 5891 5891 5891 5891 5892 5893 5893 5893 5893 5894 5895 5896 5897 5899 5901 5902 5904
5903 5904 5904 5903 5903 5902 5901 5900 5899 5899 5897 5896 5895 5894 5893 5893 5891 5890 5890 5889 5888 5888 5888 5888 5888 5888 5887 5887 5887 5887 5888 5890 5890 5890 5890 5891 5892 5893 5894 5896 5898 5900 5902
5900 5901 5901 5900 5900 5899 5898 5897 5896 5895 5894 5892 5891 5890 5889 5889 5888 5887 5886 5886 5885 5885 5885 5885 5885 5884 5884 5884 5883 5883 5884 5886 5887 5887 5887 5887 5889 5890 5891 5892 5895 5897 5899
5897 5897 5897 5897 5896 5895 5894 5894 5893 5892 5890 5888 5887 5886 5886 5885 5885 5884 5883 5883 5882 5882 5882 5882 5882 5881 5881 5881 5880 5880 5880 5881 5882 5883 5883 5884 5885 5886 5887 5889 5891 5893 5896
5894 5894 5894 5893 5893 5892 5891 5891 5890 5888 5887 5885 5884 5883 5883 5882 5882 5881 5880 5880 5879 5879 5879 5879 5878 5878 5878 5877 5877 5877 5877 5877 5878 5879 5879 5880 5881 5882 5883 5885 5887 5889 5892
5890 5891 5891 5891 5890 5889 5889 5888 5887 5885 5884 5882 5881 5880 5880 5879 5879 5878 5877 5876 5876 5875 5875 5875 5875 5875 5874 5874 5874 5873 5873 5873 5874 5875 5875 5876 5877 5878 5879 5881 5883 5885 5888
5886 5886 5886 5886 5886 5886 5885 5885 5884 5883 5881 5880 5879 5878 5877 5877 5876 5875 5874 5873 5872 5872 5872 5872 5871 5871 5871 5871 5870 5870 5870 5870 5870 5871 5872 5873 5873 5874 5875 5877 5879 5881 5883
5882 5883 5883 5883 5883 5883 5882 5882 5881 5880 5879 5877 5877 5876 5875 5874 5873 5872 5871 5870 5869 5869 5868 5868 5867 5867 5867 5867 5867 5867 5867 5867 5867 5867 5868 5869 5870 5871 5872 5873 5875 5876 5879
5879 5880 5880 5880 5880 5880 5880 5880 5879 5878 5877 5875 5875 5874 5873 5872 5871 5869 5868 5867 5866 5865 5864 5864 5863 5863 5863 5863 5863 5863 5863 5863 5863 5863 5864 5865 5866 5867 5868 5869 5870 5872 5874
5877 5878 5878 5878 5879 5878 5878 5878 5878 5877 5875 5874 5873 5872 5871 5870 5868 5867 5866 5864 5863 5862 5861 5861 5860 5859 5859 5859 5859 5859 5859 5859 5859 5859 5860 5860 5861 5862 5863 5864 5866 5867 5869
5875 5876 5876 5877 5877 5877 5877 5877 5876 5875 5874 5873 5871 5870 5869 5868 5866 5865 5863 5862 5861 5860 5859 5858 5857 5856 5856 5856 5855 5855 5855 5855 5854 5855 5855 5856 5856 5857 5858 5859 5861 5862 5864
5874 5874 5875 5876 5877 5876 5876 5876 5875 5874 5873 5872 5870 5869 5867 5866 5864 5862 5861 5860 5858 5857 5856 5855 5854 5853 5853 5852 5852 5851 5851 5851 5850 5850 5850 5851 5851 5852 5852 5854 5855 5857 5858
5873 5874 5875 5875 5875 5875 5875 5875 5874 5873 5871 5870 5868 5867 5865 5864 5862 5860 5859 5857 5856 5855 5854 5852 5851 5850 5850 5849 5848 5847 5847 5847 5846 5846 5846 5846 5846 5846 5847 5848 5849 5851 5852
5873 5873 5874 5874 5874 5874 5874 5873 5872 5871 5870 5868 5867 5865 5863 5861 5860 5858 5857 5855 5854 5852 5851 5850 5849 5847 5846 5846 5845 5844 5843 5842 5842 5842 5841 5841 5841 5841 5841 5842 5843 5844 5846
5872 5873 5873 5873 5873 5873 5872 5871 5870 5869 5868 5867 5865 5863 5861 5859 5857 5855 5854 5852 5851 5849 5848 5846 5845 5844 5842 5842 5841 5840 5839 5838 5837 5837 5837 5836 5835 5835 5835 5836 5837 5838 5839
5872 5872 5872 5872 5872 5871 5871 5870 5869 5868 5866 5865 5863 5861 5859 5857 5855 5853 5851 5849 5847 5846 5844 5843 5841 5840 5838 5837 5836 5835 5834 5833 5832 5832 5831 5831 5830 5830 5829 5830 5830 5831 5832
5871 5871 5871 5871 5870 5870 5869 5868 5867 5865 5864 5862 5861 5859 5857 5855 5852 5850 5848 5846 5844 5842 5840 5838 5837 5835 5833 5832 5830 5829 5828 5827 5826 5825 5824 5824 5823 5823 5823 5823 5823 5823 5824